Location: Shandelee
(41.8790°N, 74.8713°W)
Time: 03:25:52
(UTC+00:00)

Cosmos 1076 Rocket - Pass Details

Date: 29 October 2020
Orbit: 589 x 613 km, 82.5° (Epoch: 23 November)

Event Time Altitude Azimuth Distance (km) Brightness Sun altitude
Rises 23:18:26 0° 357° (N) 2,831 6.9 -15.7°
Reaches altitude 10° 23:20:42 10° 3° (N) 1,927 6.0 -16.1°
Maximum altitude 23:24:50 50° 79° (ENE) 762 3.6 -16.9°
Drops below altitude 10° 23:28:57 10° 155° (SSE) 1,920 5.9 -17.7°
Sets 23:31:12 0° 161° (SSE) 2,821 6.8 -18.1°
